Rbgn^[z[y[W
メイン
   新天体発見情報
     Comet C/2021 A7 (NEOWISE)
投稿するにはまず登録を

フラット表示 前のトピック | 次のトピック
投稿者 スレッド
佐藤裕久
投稿日時: 2021-1-25 18:37
モデレータ
登録日: 2005-6-12
居住地: 日本
投稿: 2626
オンライン
Comet C/2021 A7 (NEOWISE)

Jana P. Chesley (Jet推進研究所: JPL)の通報によると、1月3日UT、Near-Earth Object 
Wide-field Infrared Survey Explorer (NEOWISE:地球近傍天体広域赤外線探査衛星以前の、
WISE:広域赤外線探査衛星;CBET 4225参照)で得た赤外線画像から小惑星状天体を発見した。
彼女によると、この彗星が多少ぼやけたいるようで、恒星の点拡散関数 (PSF)と比べると
はっきりと拡張されている(W1は3.4-ミクロン、W2は4.6-ミクロン両チャンネル;尾は見え
ない)。
小惑星センターのPCCP webpageに公表後、佐藤英貴氏(東京都文京区,1月12.4日UT, 60秒
露出10枚のスタック, 0.51-m f/6.8 アストログラフ, Siding Spring, NSW, 遠隔操作:
強く集光した15" のコマが見えるが尾はない。8".2の円形範囲で測定した光度は17.2等で
あった)らCCD位置観測者によって彗星状と観測された。

彗星機能の報告は次の通り:

OC   Date        Reporter           Coma    Tail    PA          Exposures
Q62  2021-01-12  H. Sato            15"                           10x60s
Q62  2021-01-12  A. Valvasori       11"                           24x60s
G39  2021-01-13  E. Bryssinck       10"                           15x120s
W88  2021-01-13  B. Lutkenhoner      6"

発見位置は次のとおり、

     2021 UT             R.A. (2000) Decl.       Mag.
     Jan.  9.10931    6 31 40.71   -67 41 03.0    20
           9.24009    6 31 27.37   -67 40 02.6
           9.37086    6 31 14.00   -67 39 01.3
           9.50151    6 31 01.06   -67 38 01.2
           9.63229    6 30 47.97   -67 36 58.7
           9.89384    6 30 21.35   -67 34 53.4
          10.28617    6 29 42.17   -67 31 41.2

MPCの放物線軌道要素、位置推算表は次のとおり、

Orbital elements:
    C/2021 A7 (NEOWISE)                                                         
T 2021 July 15.22018 TT                                 Rudenko                 
q   1.9669953            (2000.0)            P               Q                  
                   Peri.  356.06736     -0.89458376     -0.15008670             
                   Node   154.52471     +0.43207105     -0.53109749             
e   1.0            Incl.   78.14266     +0.11416878     +0.83391213             
From 64 observations 2021 Jan. 9-14.                                            
                                                                                
Ephemeris:
Date    TT    R. A. (2000) Decl.     Delta      r    Elong.  Phase   m1
2020 12 16    07 11 29.1 -68 36 17   3.0556  3.1508    86.4    18.2  17.4
...
2020 12 31    06 47 27.2 -68 31 15   2.8895  3.0257    88.4    19.0  17.1
...
2021 01 08    06 33 33.7 -67 49 16   2.7993  2.9598    89.6    19.4  16.9
...
2021 01 14    06 23 40.0 -66 57 43   2.7317  2.9109    90.5    19.7  16.8
2021 01 15    06 22 06.2 -66 47 24   2.7204  2.9028    90.6    19.8  16.8
2021 01 16    06 20 34.4 -66 36 35   2.7092  2.8947    90.8    19.9  16.8
...
2021 01 22    06 12 07.9 -65 21 20   2.6423  2.8463    91.7    20.2  16.7
...
2021 01 30    06 03 14.6 -63 13 38   2.5550  2.7827    92.8    20.7  16.5
...
2021 02 14    05 54 48.3 -57 53 37   2.4026  2.6661    94.4    21.7  16.2

(MPEC 2021-A211、CBET 4917)

フラット表示 前のトピック | 次のトピック

題名 投稿者 日時
 » Comet C/2021 A7 (NEOWISE) 佐藤裕久 2021-1-25 18:37

投稿するにはまず登録を
 
© 1999 Tsutomu Seki.